When you browse on this site, cookies collect data to enhance your experience and personalize the content and advertising you see.
Visit our Privacy Policy to learn more. By continuing to use the site, you agree to this use of cookies and data.
  • en France
  • Liste des pays
  • À 7 jours
  • Température de l'eau
  • Carte satellitaire
  • Carte météo
  • Widgets météo
  • user-avatar
    Se connecter

    Météo par heure à Shkodёr

    Ce jour, 20 Mars, Mercredi

    Heure Température Précipitation Vent Pression Humidité
    00:00 +10°C° 0 mm 2 m/s 743 mmHg 74%
    01:00 +10°C° 0 mm 3 m/s 743 mmHg 74%
    02:00 +10°C° 0 mm 3 m/s 743 mmHg 74%
    03:00 +9°C° 0 mm 3 m/s 743 mmHg 73%
    04:00 +9°C° 0 mm 3 m/s 744 mmHg 73%
    05:00 +9°C° 0 mm 3 m/s 744 mmHg 72%
    06:00 +8°C° 0 mm 4 m/s 744 mmHg 70%
    07:00 +10°C° 0 mm 4 m/s 744 mmHg 69%
    08:00 +11°C° 0 mm 4 m/s 744 mmHg 63%
    09:00 +13°C° 0 mm 4 m/s 744 mmHg 58%
    10:00 +14°C° 0 mm 4 m/s 744 mmHg 52%
    11:00 +15°C° 0 mm 4 m/s 744 mmHg 50%
    12:00 +17°C° 0 mm 4 m/s 744 mmHg 48%
    13:00 +18°C° 0 mm 4 m/s 744 mmHg 46%
    14:00 +18°C° 0 mm 4 m/s 744 mmHg 47%
    15:00 +18°C° 0 mm 4 m/s 744 mmHg 48%
    16:00 +17°C° 0 mm 4 m/s 744 mmHg 48%
    17:00 +15°C° 0 mm 4 m/s 745 mmHg 51%
    18:00 +14°C° 0 mm 5 m/s 745 mmHg 54%
    19:00 +12°C° 0 mm 5 m/s 746 mmHg 57%
    20:00 +12°C° 0 mm 5 m/s 746 mmHg 58%
    21:00 +10°C° 0 mm 5 m/s 746 mmHg 59%
    22:00 +10°C° 0 mm 5 m/s 747 mmHg 61%
    23:00 +9°C° 0 mm 5 m/s 747 mmHg 62%

    Demain, 21 Mars, Jeudi

    Heure Température Précipitation Vent Pression Humidité
    00:00 +9°C° 0 mm 5 m/s 747 mmHg 63%
    01:00 +8°C° 0 mm 5 m/s 747 mmHg 64%
    02:00 +8°C° 0 mm 5 m/s 747 mmHg 63%
    03:00 +8°C° 0 mm 5 m/s 747 mmHg 63%
    04:00 +8°C° 0 mm 4 m/s 747 mmHg 63%
    05:00 +8°C° 0 mm 4 m/s 747 mmHg 63%
    06:00 +8°C° 0 mm 4 m/s 748 mmHg 62%
    07:00 +8°C° 0 mm 4 m/s 748 mmHg 61%
    08:00 +10°C° 0 mm 5 m/s 748 mmHg 57%
    09:00 +13°C° 0 mm 5 m/s 748 mmHg 53%
    10:00 +14°C° 0 mm 5 m/s 748 mmHg 48%
    11:00 +15°C° 0 mm 5 m/s 747 mmHg 47%
    12:00 +16°C° 0 mm 5 m/s 747 mmHg 45%
    13:00 +17°C° 0 mm 5 m/s 747 mmHg 43%
    14:00 +17°C° 0 mm 5 m/s 747 mmHg 45%
    15:00 +18°C° 0 mm 4 m/s 746 mmHg 46%
    16:00 +17°C° 0 mm 4 m/s 746 mmHg 47%
    17:00 +15°C° 0 mm 4 m/s 746 mmHg 51%
    18:00 +13°C° 0 mm 4 m/s 747 mmHg 56%
    19:00 +12°C° 0 mm 4 m/s 747 mmHg 61%
    20:00 +11°C° 0 mm 4 m/s 747 mmHg 63%
    21:00 +11°C° 0 mm 4 m/s 748 mmHg 65%
    22:00 +10°C° 0 mm 4 m/s 748 mmHg 67%
    23:00 +10°C° 0 mm 4 m/s 748 mmHg 68%

    Après-demain, 22 Mars, Vendredi

    Heure Température Précipitation Vent Pression Humidité
    00:00 +10°C° 0 mm 4 m/s 748 mmHg 68%
    01:00 +8°C° 0 mm 4 m/s 749 mmHg 69%
    02:00 +8°C° 0 mm 4 m/s 748 mmHg 69%
    03:00 +8°C° 0 mm 4 m/s 748 mmHg 70%
    04:00 +8°C° 0 mm 3 m/s 748 mmHg 71%
    05:00 +9°C° 0 mm 3 m/s 748 mmHg 70%
    06:00 +9°C° 0 mm 3 m/s 748 mmHg 69%
    07:00 +10°C° 0 mm 3 m/s 749 mmHg 69%
    08:00 +12°C° 0 mm 3 m/s 748 mmHg 62%
    09:00 +14°C° 0 mm 3 m/s 748 mmHg 56%
    10:00 +16°C° 0 mm 3 m/s 748 mmHg 49%
    11:00 +17°C° 0 mm 3 m/s 747 mmHg 47%
    12:00 +18°C° 0 mm 3 m/s 747 mmHg 44%
    13:00 +19°C° 0 mm 3 m/s 747 mmHg 41%
    14:00 +19°C° 0 mm 3 m/s 746 mmHg 42%
    15:00 +19°C° 0 mm 2 m/s 746 mmHg 42%
    16:00 +19°C° 0 mm 2 m/s 746 mmHg 43%
    17:00 +17°C° 0 mm 2 m/s 746 mmHg 48%
    18:00 +16°C° 0 mm 2 m/s 746 mmHg 54%
    19:00 +14°C° 0 mm 2 m/s 746 mmHg 59%
    20:00 +12°C° 0 mm 3 m/s 747 mmHg 60%
    21:00 +12°C° 0 mm 3 m/s 747 mmHg 61%
    22:00 +11°C° 0 mm 3 m/s 747 mmHg 61%
    23:00 +11°C° 0 mm 3 m/s 747 mmHg 62%

    23 Mars, Samedi

    Heure Température Précipitation Vent Pression Humidité
    00:00 +11°C° 0 mm 3 m/s 747 mmHg 64%
    01:00 +10°C° 0 mm 3 m/s 747 mmHg 65%
    02:00 +10°C° 0 mm 3 m/s 747 mmHg 65%
    03:00 +10°C° 0 mm 3 m/s 747 mmHg 65%
    04:00 +10°C° 0 mm 3 m/s 746 mmHg 66%
    05:00 +10°C° 0 mm 3 m/s 747 mmHg 65%
    06:00 +11°C° 0 mm 3 m/s 747 mmHg 65%
    07:00 +11°C° 0 mm 3 m/s 747 mmHg 64%
    08:00 +13°C° 0 mm 3 m/s 746 mmHg 57%
    09:00 +16°C° 0 mm 2 m/s 746 mmHg 50%
    10:00 +18°C° 0 mm 2 m/s 746 mmHg 43%
    11:00 +19°C° 0 mm 2 m/s 745 mmHg 40%
    12:00 +20°C° 0 mm 2 m/s 745 mmHg 38%
    13:00 +21°C° 0 mm 2 m/s 745 mmHg 36%
    14:00 +21°C° 0 mm 2 m/s 744 mmHg 37%
    15:00 +21°C° 0 mm 2 m/s 744 mmHg 39%
    16:00 +20°C° 0 mm 2 m/s 744 mmHg 40%
    17:00 +19°C° 0 mm 2 m/s 744 mmHg 46%
    18:00 +17°C° 0 mm 2 m/s 744 mmHg 51%
    19:00 +15°C° 0 mm 2 m/s 744 mmHg 57%
    20:00 +15°C° 0 mm 2 m/s 745 mmHg 56%
    21:00 +14°C° 0 mm 2 m/s 745 mmHg 56%
    22:00 +14°C° 0 mm 2 m/s 745 mmHg 56%
    23:00 +14°C° 0 mm 2 m/s 745 mmHg 56%

    24 Mars, Dimanche

    Heure Température Précipitation Vent Pression Humidité
    00:00 +13°C° 0 mm 2 m/s 745 mmHg 56%
    01:00 +13°C° 0 mm 2 m/s 745 mmHg 57%
    02:00 +13°C° 0 mm 2 m/s 744 mmHg 58%
    03:00 +13°C° 0 mm 2 m/s 744 mmHg 59%
    04:00 +12°C° 0 mm 2 m/s 744 mmHg 60%
    05:00 +13°C° 0 mm 2 m/s 744 mmHg 60%
    06:00 +13°C° 0 mm 2 m/s 744 mmHg 60%
    07:00 +14°C° 0 mm 2 m/s 744 mmHg 61%
    08:00 +16°C° 0 mm 2 m/s 744 mmHg 54%
    09:00 +19°C° 0 mm 1 m/s 744 mmHg 47%
    10:00 +21°C° 0 mm 1 m/s 744 mmHg 40%
    11:00 +21°C° 0 mm 1 m/s 743 mmHg 39%
    12:00 +21°C° 0 mm 2 m/s 743 mmHg 38%
    13:00 +23°C° 0 mm 2 m/s 742 mmHg 37%
    14:00 +21°C° 0 mm 2 m/s 742 mmHg 41%
    15:00 +20°C° 0 mm 2 m/s 742 mmHg 45%
    16:00 +20°C° 0 mm 2 m/s 741 mmHg 49%
    17:00 +19°C° 0 mm 1 m/s 741 mmHg 56%
    18:00 +18°C° 0 mm 1 m/s 741 mmHg 63%
    19:00 +14°C° 0 mm 0 m/s 741 mmHg 70%
    20:00 +14°C° 0 mm 0 m/s 741 mmHg 70%
    21:00 +14°C° 0 mm 0 m/s 742 mmHg 70%
    22:00 +13°C° 0 mm 0 m/s 742 mmHg 71%
    23:00 +13°C° 0 mm 0 m/s 742 mmHg 70%

    25 Mars, Lundi

    Heure Température Précipitation Vent Pression Humidité
    00:00 +14°C° 0 mm 1 m/s 741 mmHg 70%
    01:00 +14°C° 0 mm 1 m/s 741 mmHg 70%
    02:00 +13°C° 0 mm 1 m/s 741 mmHg 69%
    03:00 +13°C° 0 mm 1 m/s 741 mmHg 69%
    04:00 +13°C° 0 mm 1 m/s 741 mmHg 68%
    05:00 +13°C° 0 mm 1 m/s 741 mmHg 67%
    06:00 +14°C° 0 mm 1 m/s 741 mmHg 65%
    07:00 +14°C° 0 mm 1 m/s 741 mmHg 64%
    08:00 +16°C° 0 mm 1 m/s 741 mmHg 59%
    09:00 +18°C° 0 mm 1 m/s 741 mmHg 53%
    10:00 +20°C° 0 mm 1 m/s 741 mmHg 47%
    11:00 +20°C° 0 mm 1 m/s 740 mmHg 48%
    12:00 +20°C° 0 mm 2 m/s 740 mmHg 48%
    13:00 +20°C° 0 mm 2 m/s 739 mmHg 49%
    14:00 +20°C° 0.2 mm 2 m/s 739 mmHg 53%
    15:00 +19°C° 0.2 mm 2 m/s 738 mmHg 58%
    16:00 +18°C° 0.2 mm 2 m/s 738 mmHg 62%
    17:00 +17°C° 0.3 mm 2 m/s 738 mmHg 71%
    18:00 +15°C° 0.3 mm 1 m/s 738 mmHg 80%
    19:00 +14°C° 0.3 mm 1 m/s 738 mmHg 88%
    20:00 +13°C° 0 mm 1 m/s 738 mmHg 90%
    21:00 +13°C° 0 mm 1 m/s 738 mmHg 93%
    22:00 +12°C° 0 mm 1 m/s 738 mmHg 95%
    23:00 +12°C° 0 mm 1 m/s 738 mmHg 95%
    Voir plus